Weather History for PHBK - February, 2014

Change the Weather History Date:

Tuesday, February 4, 2014

  Actual Average Record
Temperature  
Mean Temperature 70 °F -  
Max Temperature 75 °F 81 °F 85 °F (1977)
Min Temperature 64 °F 62 °F 55 °F (1965)
Cooling Degree Days 4    
Growing Degree Days 20 (Base 50)    
Moisture  
Dew Point 59 °F    
Average Humidity 64    
Maximum Humidity 75    
Minimum Humidity 55    
Precipitation  
Precipitation 0.01 in - - ()
Sea Level Pressure  
Sea Level Pressure 29.92 in    
Wind  
Wind Speed 4 mph (ESE)    
Max Wind Speed 13 mph    
Max Gust Speed 22 mph    
Visibility 10 miles    
Events Rain    
Averages and records for this station are not official NWS values.
T = Trace of Precipitation, MM = Missing Value Source: NWS Daily Summary

Daily Weather History Graph

Daily Weather History Graph

Search for Another Location

Airport or City:

Trip Planner

Search our weather history database for the weather conditions in past years. The results will help you decide how hot, cold, wet, or windy it might be!

Date:

Astronomy

Feb. 04, 2014 Rise Set
Actual Time 7:16 AM HST 6:30 PM HST
Civil Twilight 6:52 AM HST 6:53 PM HST
Nautical Twilight 6:26 AM HST 7:20 PM HST
Astronomical Twilight 5:59 AM HST 7:46 PM HST
Moon 10:46 AM HST (2/4) 11:46 PM HST (2/4)
Length of Visible Light 12h 00m
Length of Day
11h 14m
Waxing Crescent, 31% of the Moon is Illuminated
Feb 4
Waxing Crescent
Feb 6
First Quarter
Feb 14
Full
Feb 22
Last Quarter
Feb 28
New

Hourly Weather History & Observations

Time (HST) Temp. Dew Point Humidity Pressure Visibility Wind Dir Wind Speed Gust Speed Precip Events Conditions
12:56 AM - - N/A% 29.97 in 10.0 mi Calm Calm - N/A   Partly Cloudy
1:56 AM - - N/A% 29.95 in 10.0 mi NE 3.5 mph - N/A   Clear
2:56 AM - - N/A% 29.94 in 10.0 mi Calm Calm - N/A   Clear
3:56 AM - - N/A% 29.94 in 10.0 mi ENE 3.5 mph - N/A   Clear
4:56 AM - - N/A% 29.94 in 10.0 mi East 3.5 mph - N/A   Clear
5:56 AM - - N/A% 29.95 in 10.0 mi ENE 5.8 mph - N/A   Clear
6:56 AM 64.0 °F 55.9 °F 75% 29.96 in 10.0 mi NE 3.5 mph - N/A   Overcast
7:56 AM 64.0 °F 55.0 °F 73% 29.97 in 10.0 mi ENE 3.5 mph - N/A   Partly Cloudy
8:56 AM 66.9 °F 57.0 °F 70% 29.99 in 10.0 mi East 3.5 mph - N/A   Mostly Cloudy
9:46 AM 71.6 °F 57.2 °F 60% 29.98 in 10.0 mi Calm Calm - N/A   Partly Cloudy
9:56 AM 73.0 °F 57.0 °F 57% 29.99 in 10.0 mi South 3.5 mph - N/A   Mostly Cloudy
10:56 AM 73.9 °F 57.0 °F 55% 29.97 in 10.0 mi West 5.8 mph - N/A   Overcast
11:56 AM 75.0 °F 59.0 °F 57% 29.95 in 10.0 mi NW 6.9 mph - N/A   Overcast
12:56 PM 75.9 °F 59.0 °F 56% 29.90 in 10.0 mi WNW 6.9 mph - N/A   Scattered Clouds
1:56 PM 75.0 °F 59.0 °F 57% 29.87 in - WSW 5.8 mph - N/A   Clear
2:56 PM 75.9 °F 60.1 °F 58% 29.86 in 10.0 mi WSW 4.6 mph - N/A   Mostly Cloudy
3:56 PM 75.0 °F 62.1 °F 64% 29.85 in 10.0 mi West 11.5 mph - N/A   Overcast
4:56 PM 75.0 °F 63.0 °F 66% 29.85 in 10.0 mi NNE 4.6 mph - N/A   Overcast
5:56 PM 73.9 °F 61.0 °F 64% 29.86 in 10.0 mi Variable 3.5 mph - N/A   Overcast
6:56 PM 73.0 °F 62.1 °F 68% 29.88 in 10.0 mi Calm Calm - N/A   Overcast
7:56 PM 72.0 °F 62.1 °F 71% 29.89 in 10.0 mi Calm Calm - N/A   Overcast
8:56 PM 72.0 °F 63.0 °F 73% 29.91 in 10.0 mi SSE 4.6 mph - N/A   Mostly Cloudy
9:56 PM - - N/A% 29.90 in 10.0 mi SE 9.2 mph - N/A   Scattered Clouds
10:56 PM - - N/A% 29.89 in 10.0 mi SE 8.1 mph - N/A   Clear
11:25 PM - - N/A% 29.88 in 4.0 mi SSE 8.1 mph - 0.01 in Rain Light Rain
11:52 PM - - N/A% 29.88 in 10.0 mi SE 12.7 mph - 0.01 in Rain Light Rain
11:56 PM - - N/A% 29.88 in 10.0 mi SE 12.7 mph 21.9 mph 0.01 in   Mostly Cloudy